STARLINK-33735 (63474 NORAD) Tracking and Keplerian Element Data

This shows tracking and keplerian element data for the satellite.

Feedback or suggestion? Click here.




ElementValue
Catalog63474
NameSTARLINK-33735
Epoch Orbit4079
Epoch Day354.02111882
Epoch Year2025
RAAN349.5963
Inclination43.0006
Eccentricity0.000125
Argument of Perigee274.4305
Mean Anonmoly85.6404
Mean Motion15.27590276
Decay Rate0.0002456
L11 63474U 25070Q 25354.02111882 .00024560 00000+0 89877-3 0 9998
L22 63474 43.0006 349.5963 0001250 274.4305 85.6404 15.27590276 40792



Live tracking and technical data element details for STARLINK-33735 (NORAD 63474). STARLINK-33735 can be tracked NOW for your location showing map with azimuth and elevation plus other details from your city location.







IsCatalogInMostPopularTable: catalog: 63474, numindb: 4
Update: records affected: 1



GetName: 63474 STARLINK-33735

Hit Count: updated at: Sat, 11 Apr 2026 21:53:44 GMT